Cleveland, OH

9:40 PM EST on January 21, 2017 (GMT -0500)
Cleveland Burke

Weather History for KBKL - January, 2004

Change the Weather History Date:

Tuesday, January 6, 2004

  Actual Average Record
Temperature  
Mean Temperature 19 °F -  
Max Temperature 28 °F 35 °F 62 °F (1998)
Min Temperature 10 °F 24 °F -9 °F (2014)
Degree Days  
Heating Degree Days 46    
Moisture  
Dew Point 13 °F    
Average Humidity 76    
Maximum Humidity 93    
Minimum Humidity 56    
Precipitation  
Precipitation 0.00 in - - ()
Sea Level Pressure  
Sea Level Pressure 30.25 in    
Wind  
Wind Speed 22 mph (WSW)    
Max Wind Speed 32 mph    
Max Gust Speed 43 mph    
Visibility 5 miles    
Events Snow    
Averages and records for this station are not official NWS values.
T = Trace of Precipitation, MM = Missing Value Source: NWS Daily Summary

Daily Weather History Graph

Daily Weather History Graph

Search for Another Location

Airport or City:

Trip Planner

Search our weather history database for the weather conditions in past years. The results will help you decide how hot, cold, wet, or windy it might be!

Date:

Astronomy

Jan. 06, 2004 Rise Set
Actual Time 7:53 AM EST 5:11 PM EST
Civil Twilight 7:22 AM EST 5:42 PM EST
Nautical Twilight 6:47 AM EST 6:17 PM EST
Astronomical Twilight 6:14 AM EST 6:50 PM EST
Moon 4:09 PM EST (1/6) 7:24 AM EST (1/6)
Length of Visible Light 10h 20m
Length of Day
9h 18m
Waxing Gibbous, 99% of the Moon is Illuminated
Jan 6
Waxing Gibbous
Jan 7
Full
Jan 14
Last Quarter
Jan 21
New
Jan 29
First Quarter

Hourly Weather History & Observations

Time (EST) Temp. Windchill Dew Point Humidity Pressure Visibility Wind Dir Wind Speed Gust Speed Precip Events Conditions
12:53 AM 28.9 °F 17.7 °F 19.9 °F 69% 30.15 in 10.0 mi West 15.0 mph - N/A   Overcast
1:13 AM 28.4 °F 17.0 °F 19.4 °F 69% 30.14 in 10.0 mi SW 15.0 mph - N/A   Overcast
1:53 AM 27.0 °F 17.3 °F 19.9 °F 75% 30.17 in 10.0 mi SW 10.4 mph - N/A   Overcast
2:53 AM 27.0 °F 15.6 °F 21.0 °F 78% 30.17 in 10.0 mi SW 13.8 mph - N/A   Overcast
3:53 AM 27.0 °F 14.3 °F 23.0 °F 85% 30.15 in 5.0 mi SW 17.3 mph - 0.00 in Snow Light Snow
4:10 AM 28.4 °F 15.4 °F 24.8 °F 86% 30.13 in 1.8 mi WSW 19.6 mph 25.3 mph 0.00 in Snow Light Snow
4:21 AM 28.4 °F 13.0 °F 24.8 °F 86% 30.13 in 1.0 mi WSW 28.8 mph 33.4 mph 0.00 in Snow Light Snow
4:53 AM 27.0 °F 11.3 °F 24.1 °F 89% 30.15 in 1.5 mi WSW 27.6 mph - 0.00 in Snow Light Snow
4:58 AM 26.6 °F 10.6 °F 23.0 °F 86% 30.13 in 3.0 mi WSW 28.8 mph 35.7 mph 0.00 in Snow Light Snow
5:07 AM 26.6 °F 10.8 °F 21.2 °F 80% 30.13 in 4.0 mi WSW 27.6 mph 33.4 mph 0.00 in Snow Light Snow
5:12 AM 26.6 °F 11.1 °F 21.2 °F 80% 30.13 in 2.5 mi WSW 26.5 mph 32.2 mph 0.00 in Snow Light Snow
5:25 AM 26.6 °F 11.1 °F 21.2 °F 80% 30.14 in 5.0 mi WSW 26.5 mph 32.2 mph 0.00 in Snow Light Snow
5:42 AM 24.8 °F 8.1 °F 17.6 °F 74% 30.14 in 10.0 mi WSW 28.8 mph 35.7 mph 0.00 in   Overcast
5:53 AM 25.0 °F 9.2 °F 19.9 °F 81% 30.16 in 3.0 mi WSW 25.3 mph - 0.00 in Snow Light Snow
6:12 AM 24.8 °F 7.3 °F 19.4 °F 80% 30.15 in 3.0 mi WSW 32.2 mph 38.0 mph 0.00 in Snow Light Snow
6:53 AM 21.9 °F 3.4 °F 16.0 °F 78% 30.19 in 3.0 mi West 32.2 mph 39.1 mph 0.00 in Snow Light Snow
7:42 AM 21.2 °F 3.0 °F 12.2 °F 68% 30.20 in 3.0 mi WSW 29.9 mph 35.7 mph 0.00 in   Overcast
7:53 AM 19.0 °F 1.3 °F 15.1 °F 85% 30.24 in 3.0 mi SW 25.3 mph 32.2 mph 0.00 in Snow Light Snow
7:55 AM 19.4 °F 1.4 °F 15.8 °F 86% 30.21 in 1.8 mi WSW 26.5 mph 33.4 mph 0.00 in Snow Light Snow
7:59 AM 19.4 °F 2.1 °F 15.8 °F 86% 30.22 in 3.0 mi SW 24.2 mph 33.4 mph 0.00 in Snow Light Snow
8:08 AM 17.6 °F -0.3 °F 15.8 °F 93% 30.22 in 1.2 mi SW 24.2 mph 32.2 mph 0.00 in Snow Light Snow
8:53 AM 17.1 °F -2.4 °F 12.9 °F 84% 30.28 in 2.5 mi SW 28.8 mph 35.7 mph 0.00 in Snow Light Snow
9:09 AM 15.8 °F -3.4 °F 12.2 °F 86% 30.27 in 1.2 mi SW 26.5 mph 32.2 mph 0.00 in Snow Light Snow
9:21 AM 15.8 °F -2.3 °F 12.2 °F 86% 30.27 in 0.8 mi SW 23.0 mph 32.2 mph 0.00 in Snow Light Snow
9:53 AM 15.1 °F -4.0 °F 12.0 °F 88% 30.32 in 1.0 mi WSW 25.3 mph - 0.00 in Snow Light Snow
10:00 AM 15.8 °F -3.4 °F 12.2 °F 86% 30.30 in 0.8 mi SW 26.5 mph - 0.00 in Snow Light Snow
10:16 AM 14.0 °F -5.5 °F 10.4 °F 86% 30.30 in 1.2 mi SW 25.3 mph 33.4 mph 0.00 in Snow Light Snow
10:28 AM 15.8 °F -3.7 °F 10.4 °F 79% 30.30 in 2.0 mi SW 27.6 mph 31.1 mph 0.00 in Snow Light Snow
10:53 AM 15.1 °F -4.7 °F 10.0 °F 80% 30.34 in 3.0 mi WSW 27.6 mph 36.8 mph 0.00 in Snow Light Snow
11:53 AM 15.1 °F -4.7 °F 7.0 °F 70% 30.34 in 9.0 mi WSW 27.6 mph 41.4 mph 0.00 in Snow Light Snow
12:53 PM 15.1 °F -4.0 °F 5.0 °F 64% 30.33 in 9.0 mi WSW 25.3 mph 32.2 mph 0.00 in   Mostly Cloudy
1:53 PM 15.1 °F -4.7 °F 5.0 °F 64% 30.35 in 9.0 mi WSW 27.6 mph 34.5 mph N/A   Mostly Cloudy
2:53 PM 14.0 °F -5.1 °F 1.0 °F 56% 30.35 in 10.0 mi WSW 24.2 mph 32.2 mph N/A   Widespread Dust
3:53 PM 12.9 °F -6.1 °F 1.9 °F 62% 30.36 in 10.0 mi WSW 23.0 mph 31.1 mph N/A   Scattered Clouds
4:53 PM 12.0 °F -8.1 °F -0.9 °F 56% 30.35 in 7.0 mi WSW 25.3 mph 31.1 mph N/A   Scattered Clouds
5:53 PM 10.9 °F -8.8 °F -0.0 °F 61% 30.36 in 10.0 mi WSW 23.0 mph 28.8 mph N/A   Scattered Clouds
6:53 PM 10.9 °F -7.5 °F -0.0 °F 61% 30.35 in 10.0 mi SW 19.6 mph 26.5 mph N/A   Partly Cloudy
7:53 PM 12.9 °F -4.4 °F 1.9 °F 62% 30.34 in 10.0 mi SW 18.4 mph 25.3 mph N/A   Overcast
8:53 PM 15.1 °F -3.7 °F 5.0 °F 64% 30.34 in 3.0 mi WSW 24.2 mph 32.2 mph N/A   Haze
9:38 PM 15.8 °F -3.7 °F 6.8 °F 68% 30.29 in 5.0 mi WSW 27.6 mph 32.2 mph 0.00 in   Overcast
9:53 PM 16.0 °F -4.7 °F 6.1 °F 65% 30.33 in 3.0 mi WSW 32.2 mph 40.3 mph 0.00 in Snow Light Snow
10:53 PM 16.0 °F -3.5 °F 8.1 °F 71% 30.32 in 4.0 mi WSW 27.6 mph 42.6 mph 0.00 in Snow Light Snow
11:24 PM 15.8 °F -4.1 °F 10.4 °F 79% 30.28 in 1.5 mi SW 28.8 mph 39.1 mph 0.00 in Snow Light Snow
11:53 PM 16.0 °F -3.5 °F 10.9 °F 81% 30.32 in 3.0 mi SW 27.6 mph 38.0 mph 0.00 in Snow Light Snow